Regional Weather Roundup
Issued by NWS

Home | Current Version | Previous Version | Text Only | Print | Product List | Glossary Off
Versions: 1 2 3 4 5 6 7 8 9 10 11 12 13 14 15 16 17 18 19 20 21 22 23 24 25 26 27 28 29 30 31 32 33 34 35 36 37 38 39 40 41 42 43 44 45 46 47 48 49 50

000
ASUS43 KOAX 230810
RWRNE

WEATHER ROUNDUP FOR NEBRASKA
NATIONAL WEATHER SERVICE OMAHA NE
300 AM CDT THU OCT 23 2014

NOTES: SATELLITE DATA IS BEING USED TO AUGMENT CLOUD COVER ABOVE
       12000 FEET.
       "FAIR" INDICATES FEW OR NO CLOUDS BELOW 12,000 FEET WITH NO
       SIGNIFICANT WEATHER AND/OR OBSTRUCTIONS TO VISIBILITY.

  * THESE STATIONS DO NOT REPORT WEATHER SUCH AS RAIN...SNOW OR FOG.

NEZ001>004-019>022-054>056-230900-
NEBRASKA PANHANDLE

CITY           SKY/WX    TMP DP  RH WIND       PRES   REMARKS
SCOTTSBLUFF    PTCLDY    36  29  75 CALM      30.11R
ALLIANCE       PTCLDY    27  23  85 W10       30.10R WCI  17
CHADRON        CLEAR     32  28  85 W6        30.05S WCI  26
KIMBALL        CLEAR     39  34  81 NW6       30.12R
SIDNEY         CLEAR     39  33  79 NW9       30.12R WCI  33
$$

NEZ057>060-069>072-079>082-230900-
SOUTHWEST NEBRASKA

CITY           SKY/WX    TMP DP  RH WIND       PRES   REMARKS
NORTH PLATTE   FOG       45  44  97 CALM      30.09R VSB 1/4
IMPERIAL       CLEAR     42  32  67 W6        30.09S
LEXINGTON      FOG       50  49  98 CALM      30.08R VSB 1/4
MCCOOK         CLEAR     41  41 100 NW5       30.09R FOG
OGALLALA       CLEAR     36  33  88 CALM      30.10S
$$

NEZ005>010-023>029-035>040-094-230900-
NORTH CENTRAL NEBRASKA

CITY           SKY/WX    TMP DP  RH WIND       PRES   REMARKS
VALENTINE      CLEAR     38  36  92 W3        30.06R
AINSWORTH      CLEAR     41  39  92 SW5       30.05S
BROKEN BOW     FOG       42  41  96 CALM      30.07S VSB 1/2
O`NEILL        FOG       42  42 100 SW5       30.05S VSB 1/2
ORD            FOG       41  41 100 W3        30.06R VSB 1/4
THEDFORD       PTCLDY    40  40  98 CALM      30.08R
$$

NEZ041-046>049-061>064-073>077-083>087-230900-
SOUTH CENTRAL NEBRASKA

CITY           SKY/WX    TMP DP  RH WIND       PRES   REMARKS
GRAND ISLAND   FOG       50  48  93 CALM      30.06S VSB 1/4
AURORA         FOG       57  57 100 N3        30.06R VSB 1/4
HASTINGS       FOG       52  50  93 W3        30.06R VSB 1/4
HEBRON         CLEAR     58  55  89 SW7       30.04R
HOLDREGE       FOG       49  48  97 CALM      30.07S VSB<1/4
KEARNEY *      CLOUDY    50  48  93 W3        30.08S VSB<1/4
YORK           CLOUDY    57  57 100 N3        30.05S FOG
$$

NEZ011>018-030>034-042>045-230900-
NORTHEAST NEBRASKA

CITY           SKY/WX    TMP DP  RH WIND       PRES   REMARKS
NORFOLK        FOG       49  48  97 CALM      30.04R VSB 1/4
ALBION         FOG       44  43  94 CALM      30.06R VSB 1/2
BLAIR          CLOUDY    62  60  93 SW3       30.03S FOG
COLUMBUS *     CLEAR     52  48  87 W3        30.06R
FREMONT        CLOUDY    62  60  90 W5        30.03S
TEKAMAH        CLOUDY    62  60  93 S6        30.02R
WAYNE          FOG       50  49  98 CALM      30.04R VSB 1/4
$$

NEZ050>053-065>068-078-088>093-230900-
SOUTHEAST NEBRASKA

CITY           SKY/WX    TMP DP  RH WIND       PRES   REMARKS
LINCOLN        CLOUDY    62  58  86 SW5       30.05
OMAHA EPPLEY   CLOUDY    63  59  87 S10       30.03R
BEATRICE       CLOUDY    60  58  94 S6        30.04R
FALLS CITY     CLOUDY    61  60  97 SE6       30.07R FOG
NEBRASKA CITY  CLOUDY    61  61 100 S13       30.04F FOG
PLATTSMOUTH    CLOUDY    61  59  93 S10       30.04R
$$

NEZ044-045-051>053-067-230900-
OMAHA AREA

CITY           SKY/WX    TMP DP  RH WIND       PRES   REMARKS
OMAHA EPPLEY   CLOUDY    63  59  87 S10       30.03R
BLAIR          CLOUDY    62  60  93 SW3       30.03S FOG
FREMONT        CLOUDY    62  60  90 W5        30.03S
MILLARD        CLOUDY    62  60  92 CALM      30.03S
OFFUTT AFB     CLOUDY    63  63 100 S6        30.03R
PLATTSMOUTH    CLOUDY    61  59  93 S10       30.04R
WAHOO          CLOUDY    61  58  89 SW5       30.04R
$$



USA.gov is the U.S. government's official web portal to all federal, state and local government web resources and services.